Regional Weather Roundup
Issued by NWS Boston, MA

Home | Current Version | Previous Version | Text Only | Print | Product List | Glossary On
Versions: 1 2 3 4 5 6 7 8 9 10 11 12 13 14 15 16 17 18 19 20 21 22 23 24 25 26 27 28 29 30 31 32 33 34 35 36 37 38 39 40 41 42 43 44 45 46 47 48 49 50
239
ASUS41 KBOX 302310
RWRBOX

REGIONAL WEATHER ROUNDUP
NATIONAL WEATHER SERVICE TAUNTON MA
700 PM EDT THU MAR 30 2017

NOTE:  "FAIR" INDICATES FEW OR NO CLOUDS BELOW 12,000 FEET WITH NO
SIGNIFICANT WEATHER AND/OR OBSTRUCTIONS TO VISIBILITY.

MAZALL-310000-
EASTERN MASSACHUSETTS

CITY           SKY/WX    TMP DP  RH WIND       PRES   REMARKS
BOSTON         MOCLDY    40  28  62 E12       30.14S
BEVERLY        PTCLDY    41  24  51 SE8       30.13S
LAWRENCE       PTCLDY    46  19  34 N5        30.13F
BEDFORD        PTCLDY    46  14  27 N3        30.11S
BLUE HILL        N/A     43  21  41 E6        30.10S
NORWOOD        PTCLDY    48  22  35 NE5       30.12S
MARSHFIELD     CLOUDY    41  27  56 S5        30.14S
PLYMOUTH       PTCLDY    42  24  49 S5        30.14S
TAUNTON        CLOUDY    42  24  49 SE6       30.13R
NEW BEDFORD    PTCLDY    40  25  55 S8        30.14S
$$

MAZALL-310000-
CAPE COD AND THE ISLANDS

CITY           SKY/WX    TMP DP  RH WIND       PRES   REMARKS
FALMOUTH       CLEAR     39  27  60 MISG      30.15S
HYANNIS        CLEAR     40  21  46 NW3       30.13F
CHATHAM        CLEAR     40  26  57 NE5       30.15S
PROVINCETOWN   PTCLDY    38  27  64 E6        30.14F
NANTUCKET      CLEAR     37  24  59 E3        30.15F
MARTHAS VNYRD  CLEAR     39  26  59 SW7       30.15F
$$

MAZALL-310000-
CENTRAL AND WESTERN MASSACHUSETTS

CITY           SKY/WX    TMP DP  RH WIND       PRES   REMARKS
WORCESTER      PTCLDY    44  14  29 N3        30.10S
FITCHBURG      CLOUDY    47  19  33 NW6       30.12S
ORANGE         CLOUDY    45  18  34 NE3       30.11S
SPRINGFIELD    NOT AVBL
WESTFIELD      CLOUDY    50  21  32 E5        30.11R
NORTH ADAMS    CLOUDY    41  22  46 W5        30.13R
PITTSFIELD     CLOUDY    41  20  43 N3        30.09R
$$

RIZALL-310000-
RHODE ISLAND

CITY           SKY/WX    TMP DP  RH WIND       PRES   REMARKS
PROVIDENCE     CLOUDY    45  25  45 S8        30.12S
NEWPORT        PTCLDY    40  27  59 S9        30.13S
BLOCK ISLAND   CLOUDY    40  28  62 S10       30.15R
SMITHFIELD     CLEAR     46  20  35 CALM      30.11S
WESTERLY       CLOUDY    42  32  67 S6        30.15R
$$

CTZALL-310000-
CONNECTICUT

CITY           SKY/WX    TMP DP  RH WIND       PRES   REMARKS
BRADLEY INTL   CLOUDY    50  19  29 E3        30.11R
HARTFORD       CLOUDY    50  21  32 S3        30.12R
BRIDGEPORT     CLOUDY    46  29  51 S6        30.14R
DANBURY        CLOUDY    48  20  32 W3        30.13R
GROTON         CLOUDY    42  31  64 SW8       30.14R
NEW HAVEN      CLOUDY    43  31  62 SW8       30.14R
CHESTER        FAIR      45  19  36 SW6       30.13R
MERIDEN        CLOUDY    48  22  35 S6        30.13R
WILLIMANTIC    CLOUDY    51  21  30 NW3       30.12R
OXFORD         MOCLDY    45  21  39 S7        30.12R
$$

MEZ002-015-021-024-NHZ003-005-008-011-012-014-VTZ005-008-310000-
NORTHERN NEW ENGLAND

CITY           SKY/WX    TMP DP  RH WIND       PRES   REMARKS
PORTLAND ME    CLEAR     43  18  36 N8        30.12S
BANGOR ME      PTCLDY    37  19  48 N13       30.13S WCI  29
CONCORD NH     CLOUDY    44  19  36 NW5       30.11F
MANCHESTER NH  MOCLDY    47  14  26 NW5       30.10F
NASHUA NH      CLOUDY    47  18  31 N3        30.12S
PORTSMOUTH NH  MOCLDY    38  24  55 SE9       30.11S WCI  32
JAFFREY NH     CLOUDY    40  21  46 CALM      30.10S
KEENE NH       PTCLDY    44  20  38 NE3       30.12S
BURLINGTON VT  MOCLDY    38  19  46 NW8       30.17F
MT. WASHINGTON MOCLDY    18   5  57 N15         N/A  WCI   3
$$

NYZ052-076-310000-
EASTERN NEW YORK

CITY           SKY/WX    TMP DP  RH WIND       PRES   REMARKS
ALBANY         CLOUDY    44  20  38 N6        30.14S
NEW YORK CITY  CLOUDY    47  27  45 S9        30.13F
$$

ANZALL-310000-
MARINE OBSERVATIONS

STATION/POSITION TIME  TEMP    WIND        PRES    VSBY  WAVE
                       AIR SEA DIR/SP/G                  HT/PER
                 (UTC) (F)     (DEG/KT/KT) (MB)    (MI)  (FT/S)
BOSTON BUOY      2150   40 41  110/  6/  8 1019.6          3/ 7
BUZZARDS BAY     2200   39     200/ 11/ 11 1021.5F
NANTUCKET SOUND  2250      41              1021.0F         1/ 5
MASS BAY-STELLWA 2204   40 40  130/  6/  8 1020.1F         3/ 7
ISLE OF SHOALS   2200   40     150/ 10/ 10 1020.1F
S OF BLOCK IS    2255      40                N/A           3/ 8
$$

......................KEY.........................
  SKY/WX - SKY CONDITION/PRESENT WEATHER
  TMP    - TEMPERATURE IN FAHRENHEIT
  DWPT   - DEWPOINT IN FAHRENHEIT
  RH     - RELATIVE HUMIDITY IN PERCENT
  WIND   - DIRECTION AND SPEED IN MPH
  PRES   - MEAN SEA LEVEL PRESSURE IN INCHES OF HG
  WCI    - WIND CHILL INDEX
  VSB    - VISIBILITY IN MILES
  HX     - HEAT INDEX
  TC     - TEMPERATURE IN CELSIUS
  VRB    - VARIABLE WIND DIRECTION
  N/A    - NOT AVAILABLE




USA.gov is the U.S. government's official web portal to all federal, state and local government web resources and services.